Theta_e
310 309 310 310 311 311 309 310 311 311 312 312 312 311 312 312 312 310 312 315 313 312 314 315 313 312 312 310 309 308 310 311 310 308 308 306 306 306 307 306 306 308 308 306 305 305 305
310 310 309 310 310 310 310 310 311 311 312 312 311 310 310 312 310 310 311 315 315 315 316 314 312 311 309 310 308 308 308 308 308 308 306 307 306 304 305 306 307 306 306 305 305 305 305
311 310 309 309 310 310 310 309 310 310 309 308 308 307 307 309 310 310 311 312 313 312 312 311 309 308 308 308 308 306 307 308 308 309 306 306 306 306 304 306 304 304 306 305 306 305 306
310 310 310 309 310 309 309 309 310 310 307 306 306 306 306 307 309 309 310 310 310 309 309 308 308 308 309 308 308 307 306 306 307 307 307 306 306 303 304 302 303 304 304 308 306 306 307
311 309 309 309 310 310 310 310 309 310 306 305 306 306 306 306 307 308 308 310 310 309 309 309 309 308 309 307 308 307 306 306 306 306 306 306 305 304 303 304 304 304 307 306 307 306 307
311 309 309 309 310 309 310 309 308 309 304 304 305 306 306 306 307 307 308 308 307 309 309 309 308 309 308 309 308 307 307 307 306 305 305 304 302 303 302 305 307 307 307 306 306 307 307
311 310 309 309 309 309 309 310 308 306 304 303 305 306 306 306 306 307 307 307 305 308 307 308 308 308 308 308 307 307 307 306 305 304 305 303 305 305 304 303 301 305 305 306 308 308 309
311 310 309 309 309 309 309 309 309 305 304 304 303 304 306 306 306 306 306 304 305 305 307 305 306 306 307 306 307 307 307 306 306 306 304 305 306 305 305 303 304 304 305 308 306 308 309
311 309 309 308 309 309 309 309 308 305 305 305 304 303 304 306 305 306 305 304 305 304 304 304 306 307 307 306 307 308 306 305 304 305 304 305 306 305 306 306 308 308 307 309 309 309 305
310 310 308 308 308 309 308 309 309 306 305 305 305 304 304 304 305 305 305 304 305 304 302 304 307 307 307 305 307 307 307 306 306 305 304 305 306 306 307 309 306 309 309 310 310 309 309
311 310 308 306 306 306 307 307 307 306 304 306 306 306 305 305 305 304 304 305 306 302 306 304 306 307 306 306 306 308 306 305 307 307 304 307 309 308 310 310 308 310 309 310 309 308 305
311 312 308 303 302 303 303 304 303 302 302 304 306 307 306 305 305 305 305 306 301 303 302 304 306 308 308 307 307 306 307 305 305 307 306 307 306 308 309 308 308 308 307 303 304 305 306
310 310 309 306 302 302 302 302 303 303 303 303 304 305 307 305 304 306 307 300 303 302 301 307 309 308 308 309 309 308 307 307 307 302 303 306 308 308 308 310 309 306 305 304 306 309 309
310 310 310 309 307 302 302 302 302 303 303 303 303 305 307 307 306 307 302 302 304 301 306 305 309 308 309 308 309 308 307 306 306 304 302 302 305 309 308 310 311 310 306 303 304 308 309
310 310 310 310 310 307 302 302 302 303 305 305 304 308 308 308 307 306 301 302 303 304 307 309 308 308 308 308 309 309 308 308 308 306 307 308 311 310 308 310 309 312 310 307 307 304 310
309 310 310 310 309 309 305 302 303 303 305 305 307 307 306 307 307 303 303 305 307 304 308 308 310 308 310 309 309 310 310 309 310 308 306 307 312 310 310 310 310 310 308 311 309 311 314
309 309 309 309 310 310 309 303 303 303 306 307 306 301 304 306 304 302 304 305 307 307 308 309 308 309 309 310 310 310 311 310 309 309 307 308 308 310 312 312 312 314 312 310 308 308 313
309 309 309 309 309 310 310 307 303 304 305 306 302 303 305 304 303 298 304 307 307 308 307 309 308 309 309 308 310 310 311 310 308 308 310 308 305 310 312 309 308 309 309 308 309 308 311
308 308 308 308 309 309 310 309 304 304 303 306 301 298 305 303 303 301 306 308 308 309 309 309 309 308 307 308 309 308 308 309 307 308 309 307 307 301 302 307 309 310 308 307 305 306 311
307 308 308 308 308 308 309 310 307 305 303 304 298 303 301 299 298 304 307 308 308 307 308 308 308 307 308 308 307 307 306 309 308 309 311 307 305 303 300 300 307 311 310 307 309 313 309
307 307 308 308 308 308 309 309 308 306 304 304 297 300 300 301 304 305 305 307 309 309 307 307 307 308 308 307 307 307 305 306 308 310 306 306 307 302 304 303 304 306 308 308 310 311 312
306 307 307 308 308 308 308 309 309 307 305 303 299 301 299 300 301 305 302 306 307 307 307 308 307 308 305 305 304 305 306 306 305 306 307 303 307 304 304 303 303 305 305 305 306 309 311
307 307 308 308 309 308 308 309 309 308 306 301 299 300 298 300 301 301 301 304 306 306 306 305 306 306 306 306 303 302 302 302 303 305 305 305 306 304 305 302 303 303 301 304 305 304 307
310 310 308 308 309 309 309 308 309 309 304 303 301 298 299 303 302 303 304 305 306 307 307 306 304 306 305 303 303 301 302 303 301 302 302 302 303 303 305 302 301 302 299 301 304 303 304
310 310 310 309 309 309 309 309 309 309 308 303 301 299 298 305 298 301 301 303 301 301 304 305 304 303 301 302 304 303 298 302 303 301 301 300 303 304 304 304 303 303 302 301 303 303 301
311 310 310 310 310 310 309 309 309 309 309 307 302 301 298 302 304 300 301 301 301 300 300 302 302 301 300 301 304 304 302 300 304 303 299 300 300 303 304 306 306 301 301 301 301 302 299
309 310 310 310 310 310 310 309 309 309 310 308 304 302 300 300 300 298 301 302 299 299 301 300 302 304 301 303 304 304 302 300 302 303 307 306 307 309 308 308 306 302 301 301 306 305 299
308 309 309 310 310 310 310 311 311 310 309 309 307 304 302 300 299 298 299 299 300 300 303 301 302 301 301 305 303 302 302 301 302 299 303 305 307 307 308 308 306 301 301 305 302 299 301
309 309 308 308 308 309 310 310 311 311 310 309 307 304 301 301 303 302 302 302 301 302 300 298 301 300 302 300 300 300 303 299 300 303 299 303 303 304 305 305 301 299 301 300 298 299 299
Wind_Speed
19 19 19 19 20 21 22 22 23 24 24 24 25 27 29 30 33 34 31 23 21 25 22 30 37 27 13 8 5 17 10 6 11 9 9 5 6 4 5 5 2 5 3 5 3 6 6
21 19 18 18 19 20 22 21 22 23 23 24 25 27 30 29 28 32 33 36 34 28 26 29 30 25 15 15 16 17 6 9 8 14 7 6 5 4 7 4 4 3 6 3 6 5 5
21 20 19 18 19 19 21 21 20 21 21 23 26 30 28 30 29 32 28 31 32 27 21 18 19 32 25 4 16 13 8 9 14 18 6 8 9 6 5 6 1 1 6 4 7 5 4
21 20 19 19 19 19 20 21 20 19 18 21 27 30 28 26 25 26 27 29 31 25 24 19 20 24 7 15 15 17 17 21 20 23 23 18 19 9 5 5 6 5 5 4 4 6 4
21 20 19 19 19 19 19 21 19 19 17 18 22 27 29 28 18 14 20 21 23 24 19 16 17 10 4 11 10 16 12 11 19 18 15 10 9 5 4 5 4 6 4 3 2 5 4
21 21 20 19 19 19 19 19 18 18 15 17 20 23 26 27 29 12 18 20 34 17 9 7 11 9 8 6 9 11 11 10 10 4 6 9 6 5 4 4 4 4 4 3 2 5 4
22 21 20 20 20 19 19 18 18 17 15 14 17 19 21 23 23 30 9 3 8 7 21 8 2 9 2 9 10 17 11 6 7 9 5 6 9 5 2 2 4 6 5 4 0 1 3
21 22 21 20 20 20 19 19 18 16 16 14 14 15 15 17 16 19 24 8 1 2 7 8 6 4 3 4 8 18 13 6 7 4 2 7 5 2 3 5 7 5 5 2 2 2 2
20 21 21 21 20 19 19 18 18 16 16 14 13 13 12 12 8 14 19 8 4 3 6 8 5 6 4 9 5 9 6 3 7 7 6 6 2 2 4 4 7 4 5 2 2 4 2
20 20 22 22 21 20 20 19 18 15 16 15 13 13 11 10 4 5 5 6 5 3 5 12 8 6 6 2 6 4 6 3 7 4 4 7 4 4 5 4 2 3 1 3 3 3 2
20 21 22 23 23 22 21 20 18 15 10 12 14 14 11 10 3 3 1 3 1 2 6 11 9 6 7 7 1 9 8 7 5 2 3 2 2 4 5 2 2 3 2 3 2 3 2
22 21 22 24 25 25 25 24 20 15 11 8 10 12 11 4 3 3 2 3 2 6 3 7 5 6 5 7 5 6 6 8 3 6 7 2 1 3 2 2 3 5 4 5 3 2 2
24 23 24 25 25 26 26 26 24 19 13 7 7 8 9 6 3 4 1 3 5 7 3 7 4 6 4 7 6 5 5 6 3 5 4 5 3 3 1 3 2 4 4 3 4 3 4
20 23 25 26 27 27 28 29 27 20 14 7 3 3 6 9 6 2 1 6 11 4 4 3 3 5 5 6 5 6 3 4 5 4 3 4 4 1 1 1 3 3 3 4 4 2 4
19 24 24 26 28 29 30 31 32 22 16 7 2 2 3 9 3 2 5 7 7 6 3 1 2 4 5 5 2 5 4 1 1 2 3 3 1 1 1 1 2 2 1 2 5 1 2
17 20 24 27 29 30 31 33 34 27 20 5 1 2 4 8 2 3 6 5 3 3 3 2 4 1 3 5 4 3 2 1 1 3 2 2 3 1 1 1 4 1 4 3 2 1 4
15 18 21 25 29 31 33 34 35 29 22 7 2 3 5 3 3 5 4 2 2 2 3 3 4 4 3 3 2 2 1 1 2 2 2 3 3 3 3 3 5 2 0 3 2 3 2
13 16 19 22 27 29 31 33 36 31 22 6 3 3 7 1 4 2 3 3 2 2 1 2 2 1 3 4 3 3 4 5 5 5 3 1 3 3 6 2 3 3 4 4 3 3 1
11 13 16 19 24 28 30 31 33 33 23 5 3 2 5 2 4 2 1 3 2 2 2 1 1 1 1 3 2 2 3 2 7 6 5 5 0 2 4 3 1 4 5 4 4 3 8
9 12 14 17 21 25 28 29 30 31 20 5 3 3 4 4 2 5 4 2 2 1 2 2 1 1 1 1 2 2 1 1 3 3 4 4 3 5 6 4 3 4 5 6 5 3 4
5 9 12 16 19 23 26 28 28 29 17 4 4 0 2 3 4 3 2 3 3 3 1 2 2 4 4 1 1 1 1 1 1 1 2 2 3 2 5 8 6 10 9 8 13 12 9
5 6 8 13 16 18 23 26 26 26 15 8 3 2 2 1 1 1 2 4 6 3 5 3 3 3 6 5 6 3 3 3 4 2 2 3 2 2 5 5 5 8 12 14 16 17 16
8 7 6 8 11 15 19 22 24 24 14 6 3 2 3 3 2 3 2 3 3 2 3 3 5 2 3 7 7 6 6 4 4 7 6 3 2 2 5 3 7 6 8 13 6 6 11
11 10 9 7 7 10 14 17 20 20 18 6 3 2 3 2 0 2 2 2 2 3 2 2 5 4 2 1 0 2 2 3 6 5 3 5 4 3 4 7 2 5 4 6 9 7 15
12 13 12 9 8 7 9 11 14 15 15 9 5 2 2 1 2 3 2 3 4 3 2 3 3 2 1 4 2 5 3 1 2 4 4 2 3 2 1 2 9 3 1 5 5 6 5
14 14 14 12 11 9 8 9 9 10 11 8 6 4 3 3 3 2 1 1 2 2 4 3 3 2 4 2 2 2 4 2 2 2 5 4 4 4 1 1 5 3 3 4 3 4 0
19 17 17 16 14 13 11 11 10 8 8 6 2 2 2 1 3 4 3 3 4 1 2 2 2 1 2 2 2 3 3 2 3 5 5 5 2 9 8 5 9 7 5 1 1 4 3
19 18 18 16 16 16 16 14 13 11 9 5 4 2 1 2 4 6 5 4 2 2 2 2 1 1 2 2 3 3 3 3 1 4 6 7 8 5 5 5 9 7 4 4 3 4 3
12 11 10 10 11 15 17 17 16 16 14 10 5 6 5 3 4 7 12 14 8 6 4 2 1 3 4 3 2 2 3 2 4 3 1 3 7 5 10 7 4 5 5 3 4 5 6
Wind_Direction
18 13 15 14 8 3 360 7 4 3 8 13 11 9 6 17 25 29 29 47 93 117 115 123 125 127 88 56 41 354 14 104 129 139 118 99 74 111 89 102 55 83 113 53 63 66 61
18 14 13 13 9 4 357 6 8 3 4 7 10 16 17 21 29 33 37 68 87 105 116 124 115 94 80 71 346 358 70 111 119 122 100 78 126 114 91 58 53 111 95 79 39 32 44
17 14 12 14 10 7 355 3 8 7 16 20 18 24 31 46 37 38 50 56 76 86 95 112 116 94 64 102 2 41 101 116 117 124 90 95 125 77 141 95 168 88 78 81 21 4 30
18 17 16 17 11 11 1 354 6 5 10 13 17 27 29 33 48 41 51 68 78 82 90 106 96 83 88 356 33 56 101 95 99 107 98 98 95 97 65 122 35 47 52 98 8 360 354
20 19 18 17 13 9 8 353 358 2 3 10 15 23 29 29 30 43 37 61 66 73 84 100 67 71 29 0 27 31 58 86 95 86 82 80 69 77 36 85 51 11 123 98 51 28 348
19 19 18 17 15 13 10 0 351 1 357 358 6 13 19 25 30 51 87 69 62 61 50 48 40 64 340 341 341 356 48 68 71 57 37 38 55 80 40 65 169 152 103 59 90 337 5
20 19 17 16 16 13 11 5 352 354 3 353 356 3 12 23 38 52 118 75 13 15 46 76 52 90 249 319 36 23 9 22 30 48 61 21 73 85 67 39 110 114 99 107 82 358 344
20 19 17 16 15 12 10 6 359 354 0 2 1 1 6 11 17 36 49 72 125 315 57 40 98 81 43 349 34 0 17 61 48 61 8 44 64 321 65 82 93 79 105 48 312 27 11
19 21 18 16 13 12 8 3 2 3 357 4 6 6 1 359 25 33 53 67 34 15 81 18 1 39 348 26 46 347 25 55 66 50 41 93 132 356 84 50 81 39 109 119 165 331 67
16 17 18 16 14 11 10 4 360 6 3 3 10 10 3 357 83 52 58 23 10 23 75 343 350 18 350 348 54 9 16 107 42 97 69 72 346 98 72 71 68 106 168 108 68 46 256
14 15 16 18 14 12 9 5 0 356 1 358 3 9 5 37 94 86 35 9 60 92 64 312 323 318 346 78 233 349 17 37 81 52 95 290 50 70 64 19 24 143 94 80 91 85 43
13 12 16 19 17 14 14 9 5 358 345 334 341 357 0 14 68 41 6 121 123 47 14 332 327 346 25 19 19 338 35 48 138 65 45 74 339 52 102 56 71 140 77 47 59 73 20
12 12 17 17 16 14 14 12 7 2 346 328 325 343 5 6 13 350 71 66 46 79 260 318 329 4 14 12 23 39 29 24 71 83 11 354 357 326 82 77 49 68 62 346 357 10 229
7 12 15 15 13 13 11 11 8 7 360 351 342 339 10 12 348 353 0 58 67 238 250 280 5 349 40 359 12 14 37 33 30 75 98 118 332 166 22 71 164 57 140 151 214 249 291
2 9 11 11 11 10 9 9 8 6 2 347 340 129 26 356 4 16 63 54 166 194 190 106 12 61 1 14 74 53 36 47 292 28 110 132 339 313 131 24 98 161 78 152 101 137 322
0 0 8 9 7 7 7 6 7 4 357 359 146 138 25 358 42 83 68 117 148 208 164 132 119 125 70 346 51 39 8 282 66 44 67 203 97 9 341 90 32 182 142 76 24 129 274
0 1 2 7 6 5 5 6 4 6 2 13 88 62 357 18 88 50 90 98 181 223 171 149 175 138 164 148 143 92 350 221 178 150 111 139 111 312 17 209 182 144 141 75 118 151 202
359 359 1 2 6 4 4 4 3 4 8 15 79 36 353 58 48 46 64 101 133 154 334 340 130 130 161 178 131 145 167 197 177 163 136 183 139 180 198 185 179 172 174 150 138 225 204
355 355 359 1 2 2 3 3 4 3 8 358 68 234 357 350 86 38 111 79 92 135 174 159 301 317 276 194 105 199 209 231 167 159 166 180 118 40 353 12 14 214 194 160 126 129 205
345 352 354 358 359 360 3 3 4 3 5 28 64 23 343 44 22 111 133 132 135 173 154 157 163 73 65 331 357 209 220 222 211 186 156 116 159 191 195 206 135 209 195 188 165 191 191
333 347 353 355 358 357 0 3 5 4 5 43 32 256 189 330 11 68 52 153 149 196 225 180 152 188 168 255 327 277 272 143 51 245 50 114 231 172 265 253 243 246 237 189 207 212 213
306 342 358 353 355 354 357 2 7 10 8 65 90 84 20 67 314 113 321 225 184 180 161 241 208 186 176 187 182 198 163 209 216 46 129 12 308 42 285 296 242 265 254 232 232 239 253
306 307 327 346 352 351 356 359 6 17 24 75 59 98 104 334 11 67 235 185 234 183 188 180 190 159 234 241 210 210 194 168 172 162 176 151 139 21 264 310 299 286 243 210 189 212 220
307 310 308 307 329 344 353 357 2 17 31 61 66 100 82 301 139 222 309 241 258 243 256 178 157 163 217 126 88 60 95 164 156 198 141 144 141 149 280 339 343 252 196 178 197 236 217
288 298 302 304 303 318 339 353 355 4 20 42 47 100 117 287 211 299 255 250 313 322 277 259 236 207 64 47 358 332 335 291 62 61 183 147 123 321 294 265 292 290 122 139 178 291 213
278 278 290 292 298 299 308 322 340 343 359 11 39 50 101 114 248 204 186 186 257 272 335 279 12 65 65 85 96 241 242 269 218 98 38 114 109 139 142 294 250 234 205 178 157 317 292
279 283 278 278 281 281 288 294 299 313 326 347 332 12 109 116 252 163 193 192 139 140 224 294 314 82 50 105 198 218 265 205 226 182 164 145 202 208 219 257 282 252 244 245 40 255 2
265 270 271 272 266 270 269 271 270 270 280 279 273 231 184 174 265 202 202 163 132 166 181 201 55 352 67 161 182 237 212 241 288 171 180 172 165 187 187 220 270 178 99 188 216 286 271
245 248 259 270 279 277 264 256 256 256 256 252 250 216 205 182 253 233 237 248 239 188 154 211 224 167 198 115 196 161 231 206 190 253 92 237 191 183 190 214 233 221 241 221 193 247 284